This is the latest recevied weather packets stored in our database for station/object OK1FET-4. If no packets are shown the sender has not sent any weather packets the latest 10 day(s).
| Time | Temp. | Humidity | Pressure | Rain* | Wind** | Luminosity | Snow |
|---|---|---|---|---|---|---|---|
| 1787828209 | 29.44° C | 51% | 1018.8 hPa | - | - | - | - |
| 1787827907 | 29.44° C | 52% | 1018.8 hPa | - | - | - | - |
| 1787827605 | 28.89° C | 53% | 1018.9 hPa | - | - | - | - |
| 1787827303 | 28.33° C | 54% | 1019 hPa | - | - | - | - |
| 1787827001 | 28.89° C | 53% | 1019 hPa | - | - | - | - |
| 1787826699 | 28.33° C | 54% | 1019 hPa | - | - | - | - |
| 1787826397 | 28.33° C | 55% | 1019 hPa | - | - | - | - |
| 1787826096 | 28.33° C | 55% | 1019.1 hPa | - | - | - | - |
| 1787825794 | 28.33° C | 57% | 1019.2 hPa | - | - | - | - |
| 1787825492 | 27.78° C | 58% | 1019.1 hPa | - | - | - | - |
| 1787825190 | 27.78° C | 57% | 1019.2 hPa | - | - | - | - |
| 1787824888 | 27.78° C | 55% | 1019.1 hPa | - | - | - | - |
| 1787824586 | 27.22° C | 60% | 1019.1 hPa | - | - | - | - |
| 1787824285 | 27.22° C | 61% | 1019.2 hPa | - | - | - | - |
| 1787823983 | 27.22° C | 60% | 1019.1 hPa | - | - | - | - |
| 1787823681 | 27.22° C | 62% | 1019.2 hPa | - | - | - | - |
| 1787823379 | 26.67° C | 63% | 1019.2 hPa | - | - | - | - |
| 1787823078 | 26.67° C | 64% | 1019.2 hPa | - | - | - | - |
| 1787822776 | 26.11° C | 64% | 1019.3 hPa | - | - | - | - |
| 1787822474 | 26.11° C | 65% | 1019.3 hPa | - | - | - | - |
| 1787822173 | 25.56° C | 66% | 1019.4 hPa | - | - | - | - |
| 1787821871 | 25.56° C | 67% | 1019.4 hPa | - | - | - | - |
| 1787821570 | 25° C | 67% | 1019.5 hPa | - | - | - | - |
| 1787821268 | 25° C | 69% | 1019.5 hPa | - | - | - | - |
| 1787820967 | 24.44° C | 69% | 1019.6 hPa | - | - | - | - |
* Rain since midnight (hover to see other rain measurements)
** Current wind speed in m/s (hover to see current wind gust speed)